• In Czech Republic
  • List of Countries
  • For 7 days
  • Water Temperature
  • Satellite Maps
  • Weather Map
  • Weather Widgets
  • user-avatar
    Login

    Hourly Weather Mauritius

    Today, 26 July, Wednesday

    Time Temperature Precipitation Wind Pressure Humidity
    00:00 +22°C° 0.3 mm 6 mps 725 mmHg 82%
    01:00 +22°C° 0.3 mm 6 mps 725 mmHg 83%
    02:00 +21°C° 1 mm 6 mps 725 mmHg 84%
    03:00 +21°C° 1 mm 6 mps 725 mmHg 85%
    04:00 +21°C° 1 mm 6 mps 724 mmHg 85%
    05:00 +21°C° 2.3 mm 7 mps 725 mmHg 86%
    06:00 +21°C° 2.3 mm 7 mps 725 mmHg 87%
    07:00 +21°C° 2.3 mm 7 mps 725 mmHg 88%
    08:00 +20°C° 2.7 mm 8 mps 725 mmHg 88%
    09:00 +20°C° 2.7 mm 8 mps 726 mmHg 88%
    10:00 +20°C° 2.7 mm 8 mps 726 mmHg 88%
    11:00 +20°C° 2.4 mm 8 mps 726 mmHg 88%
    12:00 +19°C° 2.4 mm 9 mps 726 mmHg 88%
    13:00 +19°C° 2.4 mm 9 mps 726 mmHg 88%
    14:00 +19°C° 1.2 mm 9 mps 726 mmHg 87%
    15:00 +20°C° 1.2 mm 8 mps 726 mmHg 87%
    16:00 +20°C° 1.2 mm 8 mps 726 mmHg 87%
    17:00 +20°C° 0.6 mm 8 mps 726 mmHg 87%
    18:00 +20°C° 0.6 mm 8 mps 726 mmHg 87%
    19:00 +20°C° 0.6 mm 8 mps 726 mmHg 87%
    20:00 +20°C° 0.1 mm 8 mps 726 mmHg 87%
    21:00 +19°C° 0.1 mm 9 mps 727 mmHg 86%
    22:00 +19°C° 0.1 mm 9 mps 727 mmHg 86%
    23:00 +20°C° 0 mm 8 mps 727 mmHg 85%

    Tomorrow, 27 July, Thursday

    Time Temperature Precipitation Wind Pressure Humidity
    00:00 +20°C° 0 mm 8 mps 727 mmHg 84%
    01:00 +21°C° 0 mm 8 mps 727 mmHg 83%
    02:00 +21°C° 0 mm 8 mps 727 mmHg 83%
    03:00 +21°C° 0 mm 7 mps 726 mmHg 83%
    04:00 +21°C° 0 mm 7 mps 726 mmHg 83%
    05:00 +21°C° 0 mm 7 mps 726 mmHg 81%
    06:00 +21°C° 0 mm 6 mps 727 mmHg 80%
    07:00 +21°C° 0 mm 6 mps 727 mmHg 79%
    08:00 +21°C° 0.3 mm 6 mps 727 mmHg 79%
    09:00 +22°C° 0.3 mm 6 mps 728 mmHg 78%
    10:00 +22°C° 0.3 mm 6 mps 728 mmHg 78%
    11:00 +22°C° 0.6 mm 6 mps 728 mmHg 79%
    12:00 +22°C° 0.6 mm 7 mps 728 mmHg 79%
    13:00 +22°C° 0.6 mm 7 mps 728 mmHg 80%
    14:00 +22°C° 0.6 mm 7 mps 727 mmHg 78%
    15:00 +22°C° 0.6 mm 8 mps 727 mmHg 77%
    16:00 +22°C° 0.6 mm 8 mps 727 mmHg 76%
    17:00 +22°C° 0.1 mm 8 mps 727 mmHg 77%
    18:00 +22°C° 0.1 mm 8 mps 728 mmHg 78%
    19:00 +22°C° 0.1 mm 8 mps 728 mmHg 79%
    20:00 +22°C° 0 mm 8 mps 728 mmHg 80%
    21:00 +22°C° 0 mm 8 mps 729 mmHg 80%
    22:00 +21°C° 0 mm 8 mps 729 mmHg 81%
    23:00 +21°C° 0.1 mm 8 mps 729 mmHg 82%

    Day after tomorrow, 28 July, Friday

    Time Temperature Precipitation Wind Pressure Humidity
    00:00 +21°C° 0.1 mm 8 mps 729 mmHg 82%
    01:00 +21°C° 0.1 mm 8 mps 729 mmHg 82%
    02:00 +21°C° 0.2 mm 8 mps 728 mmHg 82%
    03:00 +21°C° 0.2 mm 8 mps 728 mmHg 82%
    04:00 +21°C° 0.2 mm 8 mps 728 mmHg 82%
    05:00 +21°C° 0.4 mm 8 mps 728 mmHg 82%
    06:00 +21°C° 0.4 mm 8 mps 728 mmHg 82%
    07:00 +21°C° 0.4 mm 8 mps 728 mmHg 82%
    08:00 +22°C° 0.4 mm 8 mps 729 mmHg 80%
    09:00 +22°C° 0.4 mm 9 mps 729 mmHg 78%
    10:00 +23°C° 0.4 mm 9 mps 730 mmHg 75%
    11:00 +23°C° 0 mm 8 mps 729 mmHg 74%
    12:00 +23°C° 0 mm 8 mps 729 mmHg 73%
    13:00 +23°C° 0 mm 8 mps 729 mmHg 72%
    14:00 +23°C° 0.1 mm 8 mps 728 mmHg 74%
    15:00 +23°C° 0.1 mm 8 mps 728 mmHg 75%
    16:00 +23°C° 0.1 mm 8 mps 728 mmHg 76%
    17:00 +22°C° 0.1 mm 8 mps 728 mmHg 78%
    18:00 +22°C° 0.1 mm 9 mps 729 mmHg 79%
    19:00 +22°C° 0.1 mm 9 mps 729 mmHg 81%
    20:00 +22°C° 0.1 mm 9 mps 730 mmHg 81%
    21:00 +22°C° 0.1 mm 9 mps 730 mmHg 81%
    22:00 +22°C° 0.1 mm 9 mps 730 mmHg 81%
    23:00 +22°C° 0 mm 9 mps 730 mmHg 81%

    29 July, Saturday

    Time Temperature Precipitation Wind Pressure Humidity
    00:00 +21°C° 0 mm 9 mps 730 mmHg 81%
    01:00 +21°C° 0 mm 9 mps 730 mmHg 81%
    02:00 +21°C° 0 mm 9 mps 729 mmHg 81%
    03:00 +21°C° 0 mm 9 mps 729 mmHg 82%
    04:00 +21°C° 0 mm 9 mps 729 mmHg 82%
    05:00 +21°C° 0 mm 9 mps 729 mmHg 81%
    06:00 +21°C° 0 mm 9 mps 729 mmHg 81%
    07:00 +21°C° 0 mm 9 mps 730 mmHg 81%
    08:00 +21°C° 0 mm 9 mps 730 mmHg 79%
    09:00 +21°C° 0 mm 9 mps 730 mmHg 77%
    10:00 +22°C° 0 mm 10 mps 731 mmHg 75%
    11:00 +22°C° 0 mm 10 mps 730 mmHg 74%
    12:00 +22°C° 0 mm 10 mps 730 mmHg 73%
    13:00 +23°C° 0 mm 10 mps 729 mmHg 72%
    14:00 +22°C° 0 mm 10 mps 729 mmHg 72%
    15:00 +22°C° 0 mm 10 mps 729 mmHg 73%
    16:00 +22°C° 0 mm 10 mps 728 mmHg 73%
    17:00 +22°C° 0 mm 10 mps 729 mmHg 74%
    18:00 +21°C° 0 mm 10 mps 729 mmHg 76%
    19:00 +21°C° 0 mm 10 mps 729 mmHg 77%
    20:00 +21°C° 0.1 mm 10 mps 730 mmHg 77%
    21:00 +21°C° 0.1 mm 10 mps 730 mmHg 77%
    22:00 +21°C° 0.1 mm 10 mps 730 mmHg 77%
    23:00 +21°C° 0.1 mm 10 mps 730 mmHg 77%

    30 July, Sunday

    Time Temperature Precipitation Wind Pressure Humidity
    00:00 +21°C° 0.1 mm 10 mps 730 mmHg 77%
    01:00 +21°C° 0.1 mm 10 mps 729 mmHg 78%
    02:00 +21°C° 0.1 mm 9 mps 729 mmHg 78%
    03:00 +21°C° 0.1 mm 9 mps 729 mmHg 79%
    04:00 +21°C° 0.1 mm 9 mps 729 mmHg 79%
    05:00 +21°C° 0.1 mm 9 mps 729 mmHg 79%
    06:00 +21°C° 0.1 mm 9 mps 729 mmHg 80%
    07:00 +21°C° 0.1 mm 9 mps 729 mmHg 81%
    08:00 +21°C° 0.1 mm 9 mps 729 mmHg 79%
    09:00 +21°C° 0.1 mm 9 mps 730 mmHg 77%
    10:00 +22°C° 0.1 mm 9 mps 730 mmHg 76%
    11:00 +22°C° 0.1 mm 8 mps 729 mmHg 75%
    12:00 +22°C° 0.1 mm 8 mps 729 mmHg 75%
    13:00 +22°C° 0.1 mm 8 mps 728 mmHg 75%
    14:00 +22°C° 0.1 mm 8 mps 728 mmHg 75%
    15:00 +22°C° 0.1 mm 8 mps 728 mmHg 76%
    16:00 +22°C° 0.1 mm 8 mps 727 mmHg 76%
    17:00 +22°C° 0.1 mm 8 mps 728 mmHg 78%
    18:00 +22°C° 0.1 mm 8 mps 728 mmHg 80%
    19:00 +21°C° 0.1 mm 8 mps 728 mmHg 81%
    20:00 +21°C° 0.1 mm 7 mps 728 mmHg 81%
    21:00 +21°C° 0.1 mm 7 mps 729 mmHg 82%
    22:00 +21°C° 0.1 mm 7 mps 729 mmHg 82%
    23:00 +21°C° 0 mm 7 mps 728 mmHg 83%

    31 July, Monday

    Time Temperature Precipitation Wind Pressure Humidity
    00:00 +21°C° 0 mm 6 mps 728 mmHg 83%
    01:00 +21°C° 0 mm 6 mps 728 mmHg 84%
    02:00 +21°C° 0.1 mm 6 mps 728 mmHg 84%
    03:00 +21°C° 0.1 mm 6 mps 727 mmHg 85%
    04:00 +21°C° 0.1 mm 6 mps 727 mmHg 85%
    05:00 +21°C° 0.1 mm 6 mps 727 mmHg 85%
    06:00 +21°C° 0.1 mm 6 mps 728 mmHg 85%
    07:00 +21°C° 0.1 mm 5 mps 728 mmHg 85%
    08:00 +21°C° 0.1 mm 5 mps 728 mmHg 83%
    09:00 +22°C° 0.1 mm 5 mps 728 mmHg 80%
    10:00 +22°C° 0.1 mm 5 mps 729 mmHg 78%
    11:00 +23°C° 0.1 mm 5 mps 728 mmHg 77%
    12:00 +23°C° 0.1 mm 5 mps 728 mmHg 76%
    13:00 +23°C° 0.1 mm 5 mps 727 mmHg 75%
    14:00 +23°C° 0.3 mm 5 mps 727 mmHg 77%
    15:00 +22°C° 0.3 mm 5 mps 727 mmHg 78%
    16:00 +22°C° 0.3 mm 4 mps 727 mmHg 79%
    17:00 +22°C° 0.2 mm 4 mps 727 mmHg 81%
    18:00 +22°C° 0.2 mm 4 mps 727 mmHg 82%
    19:00 +21°C° 0.2 mm 4 mps 728 mmHg 83%
    20:00 +21°C° 0.2 mm 4 mps 728 mmHg 84%
    21:00 +21°C° 0.2 mm 4 mps 728 mmHg 84%
    22:00 +21°C° 0.2 mm 5 mps 728 mmHg 84%
    23:00 +21°C° 0.3 mm 4 mps 728 mmHg 85%
    Show more